RH
18 16 17 14 15 15 16 15 12 11 11 10 11 31 38 40 38 39 42 47 46 44 40 44 47 50 53 55 63 70 74 77 74 69 66 65 63 62 64 64 69 71 72 70
17 18 16 16 16 16 16 15 12 11 12 13 17 24 39 40 38 35 37 39 39 39 41 46 50 51 53 56 62 69 72 76 77 71 73 64 64 60 60 61 69 71 71 72
17 14 15 16 17 14 14 13 14 12 16 18 18 21 30 36 37 36 35 35 35 36 38 43 48 52 50 57 65 67 76 79 78 82 76 72 71 71 71 67 64 68 71 71
16 13 13 14 12 11 13 12 12 12 12 13 16 14 29 28 35 36 34 35 34 36 38 40 46 50 48 51 57 66 74 79 78 79 78 82 68 75 73 81 68 71 76 70
13 11 12 12 11 12 13 12 13 14 14 14 16 15 18 32 31 31 31 33 32 33 34 36 39 44 47 46 52 63 73 77 77 79 79 73 80 74 69 67 78 79 80 85
12 11 10 10 12 11 14 15 18 18 14 17 20 15 15 23 29 22 30 36 32 33 33 34 37 44 48 47 51 56 73 80 79 81 81 83 84 78 72 73 72 69 67 76
12 11 10 10 12 13 13 14 18 20 19 19 24 21 19 22 25 30 29 35 35 34 34 38 44 48 50 50 52 57 70 77 77 77 78 80 81 82 82 79 67 73 63 65
13 14 11 10 10 12 14 14 16 23 18 19 26 25 22 28 31 32 35 36 39 37 35 38 40 44 47 50 54 58 67 74 74 73 77 79 82 70 68 72 70 66 62 61
16 14 12 12 12 12 18 16 15 22 26 19 18 24 24 33 38 43 43 46 44 42 40 45 45 45 49 52 55 58 66 69 70 68 73 78 79 81 76 80 80 67 72 64
16 17 13 14 12 14 14 16 16 19 26 25 21 30 21 33 40 48 49 47 47 48 47 48 48 53 54 54 59 62 62 66 68 66 67 64 68 68 72 75 77 76 73 76
14 17 17 15 16 15 15 17 22 17 21 18 21 18 29 31 34 45 48 47 50 51 48 47 46 52 56 53 55 57 59 61 60 61 61 65 62 63 64 66 65 67 71 72
14 15 18 16 16 16 16 18 19 18 34 28 24 17 18 26 26 39 45 49 48 47 47 50 52 54 54 53 54 52 56 55 55 57 58 54 56 58 58 60 59 64 69 67
18 19 22 20 16 16 18 22 24 27 27 36 22 17 21 26 29 34 41 44 52 52 50 51 55 55 53 56 56 52 55 50 46 48 46 51 57 58 60 60 62 63 65 65
27 24 20 15 18 18 22 23 23 20 24 27 20 22 22 23 28 30 36 40 45 53 54 53 57 60 58 58 58 55 51 42 44 49 55 62 60 60 57 62 66 66 69 70
21 30 24 22 16 17 18 19 22 21 24 21 21 25 21 25 28 34 37 46 50 55 54 56 57 61 60 57 52 50 50 50 52 58 61 65 65 66 65 66 69 70 72 71
25 34 30 26 22 18 20 19 18 19 23 21 20 23 22 30 34 39 44 50 53 54 52 56 56 56 53 52 51 49 51 56 62 63 64 65 69 69 71 71 73 76 77 77
33 34 32 30 27 24 26 22 20 22 21 20 21 20 29 32 38 41 46 48 50 48 52 52 48 48 50 48 52 53 55 58 63 67 68 69 70 70 70 71 75 77 79 81
41 46 38 34 33 32 26 25 20 22 26 26 29 33 41 46 48 46 48 46 49 47 45 46 45 50 53 53 58 62 58 63 64 67 67 69 71 70 72 78 80 82 82 82
31 34 41 36 29 31 26 29 30 24 29 34 35 44 46 47 43 46 45 46 46 46 47 53 55 57 61 57 60 64 66 64 64 64 67 69 69 72 77 83 85 84 82 74
32 46 27 42 33 32 29 25 29 25 29 36 41 46 45 44 39 43 45 42 48 52 59 58 55 53 56 63 64 70 67 67 64 63 71 72 74 80 84 83 83 78 76 75
35 39 34 37 33 28 30 27 26 34 28 42 42 46 44 41 44 48 47 50 52 56 58 56 54 56 62 65 72 74 74 73 68 74 76 75 77 82 81 81 78 77 76 78
33 36 34 40 37 34 43 34 34 39 53 47 47 48 49 47 50 50 52 57 54 53 54 57 60 63 65 70 77 81 82 79 78 78 78 78 78 75 69 81 78 79 80 83
30 34 32 33 32 53 48 51 48 47 50 45 44 43 44 45 44 51 56 54 55 58 62 63 65 69 68 72 78 81 79 79 81 82 80 79 80 77 76 79 78 71 72 76
43 47 45 52 51 52 51 46 45 44 44 42 41 42 42 46 53 54 55 58 61 64 68 66 68 71 73 76 77 78 79 82 84 83 80 77 85 82 75 65 63 72 78 86
33 44 52 56 54 50 50 51 47 49 51 52 52 51 52 53 57 58 59 65 70 75 76 74 80 82 82 83 82 80 84 89 88 87 86 88 78 80 77 71 77 86 81 96
34 49 39 41 49 46 50 56 48 48 53 50 49 55 56 54 57 59 62 71 76 80 82 84 87 87 85 84 87 88 90 93 95 92 89 93 93 78 90 97 94 90 100 100
Wind_Speed
2 5 8 7 7 1 2 2 2 2 2 2 1 5 9 11 11 13 13 13 14 14 11 13 14 13 12 11 12 13 12 11 9 8 7 8 8 8 8 8 10 10 10 11
4 8 4 3 5 4 5 6 3 5 3 2 4 5 7 10 11 11 12 13 13 11 10 11 13 14 14 14 13 12 13 13 12 9 7 7 5 7 8 7 10 11 12 11
4 3 5 3 5 6 2 1 3 4 6 7 7 3 3 6 10 9 11 11 12 13 12 11 12 14 13 14 14 14 15 14 13 12 8 7 6 6 6 7 8 9 11 12
5 2 5 6 5 6 4 5 3 7 6 3 3 8 4 6 10 14 14 14 14 14 12 12 13 13 15 14 13 15 15 14 12 12 10 12 9 8 7 5 6 7 9 11
3 6 6 6 4 6 2 4 4 3 5 5 3 5 3 3 11 17 16 16 15 14 14 15 16 16 14 14 16 14 13 12 10 10 11 9 12 9 8 8 9 9 8 9
3 1 3 2 5 2 10 5 6 4 2 5 3 6 6 8 17 13 12 13 14 15 15 14 12 12 13 12 12 10 11 11 10 11 13 14 14 11 8 8 8 8 9 8
3 3 1 2 7 5 2 4 3 4 4 0 4 4 5 4 8 11 15 13 13 13 13 13 13 13 11 11 10 9 10 10 10 11 12 12 12 10 10 10 8 9 8 7
7 8 7 5 4 4 3 2 1 3 2 2 2 5 1 5 10 9 11 9 10 12 12 13 14 13 11 10 11 11 10 9 9 10 10 8 9 7 7 9 8 8 8 9
6 5 1 1 3 2 5 5 4 6 2 4 1 3 7 5 1 7 11 10 12 12 13 13 13 12 10 10 10 9 8 7 7 7 6 7 7 9 8 10 8 8 9 9
3 7 1 5 3 12 3 9 5 1 2 3 2 3 5 2 5 8 12 13 12 12 11 11 11 9 6 5 6 6 6 5 4 5 5 5 6 5 6 7 10 10 10 9
6 3 5 4 1 7 6 5 7 4 3 3 3 0 4 5 8 12 14 14 14 13 12 10 8 6 5 6 6 6 6 5 4 4 4 3 4 5 7 8 9 10 10 11
7 2 5 2 3 2 1 5 6 5 5 1 3 5 4 5 7 11 14 13 12 12 10 8 6 7 7 7 6 6 5 5 4 3 1 3 5 7 9 10 11 12 13 13
11 5 6 5 5 4 3 4 4 6 3 7 5 4 2 4 6 10 15 13 11 11 10 7 6 7 7 7 7 7 5 5 4 1 3 5 8 8 9 11 12 13 14 15
10 4 10 11 13 5 7 8 8 4 5 6 7 7 5 4 6 6 9 10 12 13 11 8 7 8 8 8 6 5 5 5 2 3 5 7 9 9 10 13 14 14 14 15
5 6 4 1 5 7 9 13 11 7 4 6 2 5 5 5 6 7 5 6 8 9 9 8 9 8 6 5 4 4 4 5 5 7 7 9 7 9 12 13 14 15 15 15
1 5 5 4 3 8 8 10 9 6 6 4 5 6 4 5 5 3 1 5 7 8 9 8 6 6 6 6 8 7 8 6 5 8 10 8 8 10 12 14 15 15 15 15
5 9 6 7 3 8 4 13 12 6 7 6 6 4 3 6 7 4 3 7 9 10 8 7 7 6 5 5 5 6 7 7 8 9 9 9 9 12 13 14 15 15 15 13
9 7 3 6 7 7 4 2 6 6 6 7 1 4 3 3 1 2 4 7 8 7 7 6 3 3 6 8 9 9 9 9 9 11 11 10 11 13 14 14 15 15 11 11
1 7 6 6 7 2 3 5 7 9 7 8 5 4 5 5 5 5 4 4 6 5 5 6 7 7 7 8 9 10 11 11 11 13 12 12 12 13 13 14 13 11 11 11
7 6 4 4 6 9 3 3 6 5 6 10 9 9 11 8 5 4 5 5 7 8 7 6 6 6 8 10 11 11 12 12 14 14 13 12 11 11 13 13 12 11 11 12
4 4 5 5 3 1 0 2 7 7 1 8 11 10 10 5 3 5 6 7 7 6 7 7 7 7 9 11 11 12 13 14 14 12 11 12 11 11 12 11 11 11 11 11
5 6 4 3 3 6 2 7 8 1 2 8 9 8 6 6 6 7 6 6 6 7 8 10 9 9 10 9 9 11 12 12 12 12 12 13 12 10 9 12 12 12 12 12
4 1 4 2 2 2 2 3 2 3 8 8 10 8 6 6 5 5 5 6 7 8 8 7 7 9 9 9 10 12 12 13 13 14 14 13 13 12 10 10 12 12 12 11
3 2 4 6 3 3 3 3 3 5 10 9 9 8 5 6 5 6 6 6 6 6 7 7 9 10 10 11 11 10 12 12 13 15 14 13 12 11 10 8 8 9 10 10
2 8 8 4 3 4 3 4 5 9 10 11 10 8 7 6 5 4 3 4 4 5 8 9 9 10 11 12 12 11 13 13 12 12 12 11 10 9 10 9 8 8 11 8
6 7 7 5 11 3 9 6 5 9 9 8 9 8 8 6 4 2 4 5 6 8 9 9 9 9 10 10 11 10 12 12 13 13 9 7 8 8 6 6 9 10 13 15
Wind_Direction
71 217 222 207 210 159 160 170 137 105 4 175 198 131 176 179 195 182 180 183 198 212 203 201 206 201 200 200 199 201 200 202 202 210 224 236 238 238 242 245 248 248 246 252
175 234 238 198 188 233 191 163 143 105 22 192 164 91 185 197 209 208 197 197 199 197 209 207 202 203 203 202 203 201 206 200 202 206 214 228 231 237 247 240 240 238 243 246
206 112 142 187 168 183 145 157 167 140 105 77 137 143 166 207 220 218 221 219 209 207 208 200 211 210 206 209 204 206 203 206 207 204 210 223 239 248 250 242 249 244 243 245
248 225 204 180 200 203 165 185 145 138 180 158 320 209 225 207 220 229 219 213 210 209 209 206 201 210 212 211 209 215 212 209 211 207 218 230 243 241 234 231 244 256 235 244
152 179 175 187 167 185 101 111 106 99 103 162 177 238 182 205 232 230 219 217 214 210 208 210 208 210 209 208 211 214 211 216 217 215 224 233 244 247 259 259 263 253 248 240
264 270 246 139 89 69 143 96 64 79 111 216 127 245 220 212 232 220 224 222 212 205 204 213 217 213 212 209 216 214 211 217 210 212 216 225 238 252 260 264 273 272 271 262
194 194 230 177 117 116 161 152 153 192 198 24 115 197 281 236 266 236 221 217 207 200 198 203 207 210 214 208 207 209 206 211 206 212 222 229 241 252 259 268 271 284 286 281
190 186 182 162 216 161 158 221 149 203 229 110 150 229 129 306 284 247 230 203 197 196 196 202 207 213 211 201 199 201 198 203 203 212 226 231 241 252 259 262 272 276 276 277
170 215 119 62 122 221 148 159 67 110 106 246 51 240 259 342 14 191 189 182 193 195 196 201 206 209 205 199 196 200 196 203 208 215 221 227 236 243 263 280 281 280 282 279
175 187 107 136 125 58 219 132 154 82 195 279 153 266 280 297 220 195 197 193 187 193 189 197 202 194 196 187 172 188 192 206 199 207 223 242 253 278 287 289 288 287 286 280
162 244 143 179 204 154 147 142 67 102 329 283 299 258 218 251 223 214 205 197 191 191 195 197 191 182 180 162 168 169 161 170 185 199 225 252 316 325 311 290 288 288 290 284
174 174 144 133 347 283 30 135 163 212 181 58 307 277 172 266 255 217 214 211 210 206 197 193 184 166 163 158 160 152 139 165 196 207 258 329 322 305 292 292 296 296 291 288
172 204 147 142 149 171 188 134 113 104 126 189 240 268 137 294 253 222 217 214 207 204 198 193 174 169 166 160 156 154 160 193 206 289 317 301 285 286 300 306 306 301 294 289
136 129 212 212 219 140 171 168 166 184 196 163 232 288 293 321 294 244 234 224 204 200 195 182 171 174 172 168 166 171 193 215 241 277 259 267 279 301 314 311 304 301 294 286
171 162 166 84 156 158 165 162 162 185 166 233 138 221 286 316 321 300 238 217 201 191 174 163 165 165 168 166 177 214 248 253 249 259 263 266 298 318 315 308 302 297 292 283
97 130 145 120 137 162 155 164 174 155 158 147 199 257 267 320 305 283 225 166 169 163 154 155 162 169 174 194 216 228 244 268 263 260 265 295 313 312 303 298 296 295 293 286
129 141 175 147 129 116 155 193 180 161 179 178 215 278 330 294 311 306 183 166 162 161 158 172 183 197 208 238 273 297 312 311 294 282 284 291 299 301 302 304 301 297 294 290
132 113 82 125 155 201 82 185 213 193 174 196 187 253 313 325 35 119 158 160 152 150 159 176 193 315 339 340 343 334 313 297 288 283 286 295 301 302 302 302 297 295 291 293
167 132 106 163 202 32 117 182 172 189 196 205 210 156 131 137 141 90 86 93 109 99 59 34 21 7 347 344 346 333 319 315 304 290 290 289 297 297 297 294 293 297 298 296
80 83 136 164 189 220 150 139 142 108 250 192 197 178 167 180 201 135 137 97 81 66 57 40 18 354 350 343 339 325 313 305 293 294 286 290 291 289 292 295 298 297 294 291
117 59 155 152 176 220 109 48 134 187 255 174 183 179 168 188 29 89 120 84 66 54 41 25 12 357 348 342 340 323 313 301 305 299 289 290 292 294 292 292 293 296 293 293
153 142 139 121 158 227 81 126 198 76 74 159 155 146 144 118 113 102 87 73 51 34 23 18 5 353 343 338 336 323 314 320 313 306 300 298 297 292 294 296 298 297 292 286
167 5 147 249 100 40 315 311 341 183 151 140 140 144 132 121 103 82 70 50 36 21 8 7 350 331 336 337 336 325 324 322 317 306 298 298 294 290 296 300 303 297 292 284
110 177 97 169 137 100 64 88 107 132 111 105 105 112 96 96 85 79 60 38 19 13 360 346 336 340 338 342 336 328 323 325 320 311 306 301 297 297 298 299 302 301 300 295
62 154 131 89 146 124 105 106 101 99 98 93 81 87 91 103 90 88 63 23 11 360 359 355 347 340 341 341 339 341 342 333 328 329 315 309 308 305 297 299 304 297 290 278
188 153 183 171 164 129 146 145 133 115 103 92 103 94 72 72 73 49 51 30 9 10 0 354 349 347 342 339 338 348 343 334 327 317 311 306 304 302 287 281 298 273 248 272